Home   Weather   Norfolk   Past weeks

Flag for USA Past Weather in Norfolk, Virginia, USA — Yesterday and Last 2 Weeks

62 °F

Scattered clouds.

Feels Like: 62 °F
Forecast: 51 / 62 °F
Wind: 16 mph from Northwest

Location: Norfolk Naval Air Station

Current Time: Oct 22, 2016 at 5:37:49 PM

Latest Report: Oct 22, 2016 at 4:59 PM

Visibility: 10 mi

Pressure: 29.79 "Hg

Humidity: 37%

Dew Point: 35 °F

Location of NorfolkLocation

Past Weather in Norfolk — Graph


Norfolk Temperature Yesterday

Maximum temperature yesterday: 81 °F (at 2:59 PM)
Minimum temperature yesterday: 60 °F (at 10:59 PM)
Average temperature yesterday: 70 °F

High & Low Weather Summary for the Past Weeks

High86 °F (Oct 19, 3:59 PM)100% (Oct 8, 10:59 PM)30.43 "Hg (Oct 8, 10:59 PM)
Low50 °F (Oct 14, 7:59 PM)35% (Oct 22, 2:59 PM)29.55 "Hg (Oct 21, 4:59 PM)
Average66 °F75%30.09 "Hg
* Reported Oct 7 3:59 PM — Oct 22 3:59 PM, Norfolk, Weather by CustomWeather, © 2016

Note: Actual official high and low records may vary slightly from our data, if they occured in-between our weather recording intervals... More about our weather records


Norfolk Weather History for the Previous 24 Hours

Scroll right to see more
Time TempWeatherWind HumidityBarometerVisibility
3:59 PM
Sat, Oct 22
63 °FScattered clouds.21 mph37%29.78 "Hg10 mi
2:59 PM63 °FPassing clouds.22 mph35%29.77 "Hg10 mi
1:59 PM62 °FPassing clouds.23 mph38%29.77 "Hg10 mi
12:59 PM62 °FPassing clouds.24 mph39%29.78 "Hg10 mi
11:59 AM61 °FScattered clouds.22 mph46%29.78 "Hg10 mi
10:59 AM58 °FPartly sunny.25 mph54%29.77 "Hg10 mi
9:59 AM57 °FPartly sunny.20 mph55%29.75 "Hg10 mi
8:59 AM57 °FPartly sunny.22 mph60%29.73 "Hg10 mi
7:59 AM56 °FMostly cloudy.26 mph62%29.70 "Hg10 mi
6:59 AM56 °FOvercast.18 mph62%29.67 "Hg10 mi
5:59 AM56 °FOvercast.22 mph65%29.65 "Hg10 mi
4:59 AM57 °FMostly cloudy.23 mph72%29.62 "Hg10 mi
3:59 AM59 °FOvercast.22 mph72%29.59 "Hg10 mi
2:59 AM59 °FMostly cloudy.16 mph84%29.58 "Hg10 mi
1:59 AM60 °FPassing clouds.14 mph80%29.58 "Hg10 mi
12:59 AM60 °FPartly cloudy.18 mph86%29.57 "Hg10 mi
11:59 PM
Fri, Oct 21
61 °FLight rain. Overcast.16 mph87%29.57 "Hg10 mi
10:59 PM60 °FRain. Fog.17 mph93%29.57 "Hg5 mi
9:59 PM64 °FLight rain. Passing clouds.18 mph84%29.58 "Hg10 mi
8:59 PM64 °FRain. Overcast.14 mph84%29.58 "Hg4 mi
7:59 PM64 °FRain. Fog.10 mph90%29.58 "Hg5 mi
6:59 PM71 °FMostly cloudy.14 mph81%29.56 "Hg10 mi
5:59 PM76 °FPartly sunny.18 mph62%29.55 "Hg10 mi
Weather by CustomWeather, © 2016

See weather overviewHow to use our weather pages